Regional Weather Roundup
Issued by NWS

Home | Current Version | Previous Version | Graphics & Text | Print | Product List | Glossary On
Versions: 1 2 3 4 5 6 7 8 9 10 11 12 13 14 15 16 17 18 19 20 21 22 23 24 25 26 27 28 29 30 31 32 33 34 35 36 37 38 39 40 41 42 43 44 45 46 47 48 49 50
000
ASUS43 KLMK 250402
RWRKY
KENTUCKY REGIONAL WEATHER ROUNDUP
NATIONAL WEATHER SERVICE LOUISVILLE KY
1200 AM EDT SUN SEP 25 2016

NOTE "FAIR" INDICATES FEW OR NO CLOUDS BELOW 12,000 FEET
WITH NO SIGNIFICANT WEATHER AND/OR OBSTRUCTIONS TO VISIBILITY.

KYZ001>023-026-027-061>063-070>075-250500-
WESTERN AND SOUTH CENTRAL KENTUCKY

CITY           SKY/WX    TMP DP  RH WIND       PRES   REMARKS
PADUCAH        CLEAR     73  68  84 CALM      30.05R
HENDERSON      CLEAR     70  63  78 CALM      30.06R
OWENSBORO      NOT AVBL
HOPKINSVILLE   CLEAR     75  66  73 CALM      30.07R
BOWLING GREEN  CLEAR     70  66  87 CALM      30.08R
GLASGOW        NOT AVBL
$$

KYZ024-025-028>034-038-045-046-053-250500-
NORTH CENTRAL KENTUCKY

CITY           SKY/WX    TMP DP  RH WIND       PRES   REMARKS
LOUISVILLE/SDF CLEAR     78  66  66 E6        30.09R
LOUISVILLE/LOU CLEAR     77  67  71 E6        30.10R
FORT KNOX      CLEAR     73  66  78 NE3       30.09R
$$

KYZ035>037-039>044-047>052-055>060-089>105-250500-
NORTHEAST KENTUCKY

CITY           SKY/WX    TMP DP  RH WIND       PRES   REMARKS
LEXINGTON      CLEAR     75  65  70 NE9       30.12S
COVINGTON      CLEAR     72  65  78 E5        30.13R
FRANKFORT      CLEAR     75  66  73 NE6       30.11R
$$

KYZ054-064>069-076>088-106>120-250500-
SOUTHEAST KENTUCKY

CITY           SKY/WX    TMP DP  RH WIND       PRES   REMARKS
JACKSON        CLEAR     73  64  73 CALM      30.13S
LONDON         CLEAR     68  64  87 CALM      30.12R
SOMERSET       CLEAR     66  66 100 CALM      30.12R
MIDDLESBORO    CLEAR     65  64  97 CALM      30.13S
MONTICELLO     CLEAR     64  62  93 N9        30.12
$$





USA.gov is the U.S. government's official web portal to all federal, state and local government web resources and services.